Location: Newark
(51.3318°N, 0.0053°E)
Time: 03:58:27
(UTC+00:00)

Envisat - Pass Details

Date: 24 January 2022
Orbit: 764 x 765 km, 98.2° (Epoch: 25 May)

Event Time Altitude Azimuth Distance (km) Brightness Sun altitude
Rises 03:50:30 0° 24° (NNE) 3,244 6.7 -36.8°
Reaches altitude 10° 03:53:20 10° 40° (NE) 2,312 6.0 -36.3°
Maximum altitude 03:57:15 22° 90° (E) 1,631 5.2 -35.8°
Drops below altitude 10° 04:01:09 10° 141° (SE) 2,299 5.7 -35.2°
Sets 04:03:57 0° 156° (SSE) 3,220 6.4 -34.7°
